Location: Phoenix
(33.4480°N, 112.0730°W)
Time: 10:31:21
(UTC-07:00)

Cosmos 1470 Rocket - Visible Passes

Search period start: 21 October 2017 00:00
Search period end: 31 October 2017 00:00
Orbit: 605 x 633 km, 82.5° (Epoch: 20 October)

Date Brightness Start Highest point End Pass type
(mag) Time Alt. Az. Time Alt. Az. Time Alt. Az.
22 Oct 5.9 19:48:59 10° N 19:49:38 14° N 19:49:38 14° N visible
23 Oct 5.8 20:06:23 10° NNW 20:07:39 18° NNW 20:07:39 18° NNW visible
24 Oct 5.2 18:46:51 10° NNE 18:48:43 17° NE 18:48:43 17° NE visible
24 Oct 6.0 20:24:11 10° NNW 20:25:57 19° NW 20:25:57 19° NW visible
25 Oct 4.0 19:03:27 10° N 19:07:30 38° ENE 19:07:30 38° ENE visible
25 Oct 6.5 20:42:48 10° NW 20:44:46 14° W 20:44:46 14° W visible
26 Oct 3.4 19:20:31 10° N 19:24:58 78° E 19:27:56 21° SSE visible
27 Oct 4.4 19:37:57 10° NNW 19:42:15 50° W 19:46:30 10° SSW visible
28 Oct 4.8 18:18:19 10° NNE 18:21:41 21° ENE 18:25:00 10° SE visible
28 Oct 5.7 19:55:48 10° NW 19:59:27 25° W 20:03:02 10° SW visible
29 Oct 3.9 18:34:57 10° N 18:39:09 40° E 18:43:16 10° SSE visible
29 Oct 6.7 20:14:33 10° WNW 20:16:32 13° W 20:18:31 10° WSW visible
30 Oct 3.4 18:52:03 10° N 18:56:30 83° E 19:00:53 10° S visible
